Regional Weather Roundup
Issued by NWS

Home | Current Version | Previous Version | Text Only | Print | Product List | Glossary On
Versions: 1 2 3 4 5 6 7 8 9 10 11 12 13 14 15 16 17 18 19 20 21 22 23 24 25 26 27 28 29 30 31 32 33 34 35 36 37 38 39 40 41 42 43 44 45 46 47 48 49 50
000
ASUS43 KMKX 161021
RWRWI

WISCONSIN REGIONAL WEATHER ROUNDUP
NATIONAL WEATHER SERVICE MILWAUKEE/SULLIVAN WI
400 AM CST MON JAN 16 2017

NOTE: "FAIR" INDICATES FEW OR NO CLOUDS BELOW 12,000 FEET WITH NO
SIGNIFICANT WEATHER AND/OR OBSTRUCTIONS TO VISIBILITY.

WIZ001-002-006>008-014>016-023>028-161100-
NORTHWEST WISCONSIN

CITY           SKY/WX    TMP DP  RH WIND       PRES   REMARKS
SUPERIOR ARPT  CLOUDY    17  15  91 W3        30.17S
ASHLAND        CLOUDY    19  13  77 S8        30.17F WCI   9
HAYWARD        CLOUDY     3  -2  79 CALM      30.17S
SIREN          CLOUDY     4   1  86 CALM      30.18S
CUMBERLAND     FOG        9   5  85 CALM      30.17S VSB 1/2
RICE LAKE      CLOUDY     1  -3  87 CALM      30.20F
CHETEK         CLOUDY     0  -3  85 CALM      30.20F
LADYSMITH      CLOUDY     6   2  87 E3        30.20F
EAU CLAIRE     CLOUDY     4   1  88 CALM      30.21F FOG
MENOMONIE      CLOUDY     5   2  86 CALM      30.22S FOG
NEW RICHMOND   CLOUDY    12  10  90 S5        30.19S WCI   5
OSCEOLA        CLOUDY    16  16 100 S6        30.21F WCI   7
$$

WIZ003>005-009-010-017-018-161100-
NORTH CENTRAL WISCONSIN

CITY           SKY/WX    TMP DP  RH WIND       PRES   REMARKS
MANITOWISH WTR CLOUDY     7   7 100 CALM      30.15S
ARBOR VITAE    CLOUDY     9   6  87 CALM      30.15F
WOODRUFF       CLOUDY     9   6  87 CALM      30.15F
RHINELANDER    CLOUDY    11   8  88 W3        30.17F FOG
EAGLE RIVER    CLOUDY    10   9  93 CALM      30.15S
LAND O LAKES   CLOUDY     0  -3  85 CALM      30.16S
PHILLIPS       CLOUDY   N/A N/A N/A CALM      30.16F HAZE
TOMAHAWK       CLOUDY    -2  -6  84 CALM      30.18F
MEDFORD        CLOUDY     8   6  92 CALM      30.18F
MERRILL        CLOUDY    -5 -10  81 CALM        N/A
$$

WIZ029-030-035-036-043>047-161100-
CENTRAL WISCONSIN

CITY           SKY/WX    TMP DP  RH WIND       PRES   REMARKS
WAUSAU         CLOUDY     3   0  87 CALM      30.21S
MOSINEE        CLOUDY    12  12 100 CALM      30.22S
MARSHFIELD     CLOUDY    13   9  84 SW6       30.19F WCI   4
STEVENS POINT  CLOUDY     1  -2  85 CALM      30.23F
WAUPACA        CLOUDY    10   6  83 CALM      30.24F
WAUTOMA        CLOUDY    10   7  87 CALM      30.25F
WISC RAPIDS    CLOUDY     9   6  88 CALM      30.24S
CAMP DOUGLAS   CLOUDY    15  12  87 CALM      30.23S
$$

WIZ011>013-019>022-031-037>040-048>050-161100-
NORTHEAST WISCONSIN

CITY           SKY/WX    TMP DP  RH WIND       PRES   REMARKS
ANTIGO         CLOUDY    -3  -5  90 CALM      30.19F FOG
SHAWANO        PTCLDY    10   6  87 CALM      30.25S
OCONTO         CLOUDY     6   3  89 CALM      30.25F
STURGEON BAY   CLOUDY    19  13  77 SW5       30.25S WCI  12
GREEN BAY      CLOUDY    18  14  84 SW5       30.25F WCI  11
MANITOWOC      PTCLDY    13   9  84 CALM      30.26F
APPLETON       CLOUDY    19  12  73 CALM      30.22F
CLINTONVILLE   CLOUDY     5   1  85 CALM      30.25S
OSHKOSH        CLOUDY    19  13  77 CALM      30.25S
$$

WIZ032>034-041-042-053>061-161100-
SOUTHWEST WISCONSIN

CITY           SKY/WX    TMP DP  RH WIND       PRES   REMARKS
LA CROSSE      CLOUDY   N/A N/A N/A S3        30.24F
SPARTA         CLOUDY    12  11  94 CALM      30.25S
VIROQUA        CLOUDY    26  18  69 S9        30.21S WCI  17
BOSCOBEL       MIX PCPN  25  20  81 CALM      30.26F
PRAIRIE DU CHI MIX PCPN  25  21  84 E3        30.25F
PLATTEVILLE    CLOUDY    29  25  85 SE5       30.23F WCI  24
$$

WIZ056-057-062-063-064-067-068-161100-
SOUTH CENTRAL WISCONSIN

CITY           SKY/WX    TMP DP  RH WIND       PRES   REMARKS
REEDSBURG      CLOUDY    19  17  90 CALM      30.24F
BARABOO/DELLS  CLOUDY    22  18  85 S3        30.24S
LONE ROCK      CLOUDY    23  19  85 CALM      30.26F
MINERAL POINT  FLURRIES  30  23  74 SE3       30.23F
MADISON        CLOUDY    24  20  84 CALM      30.25F
MIDDLETON      CLOUDY    26  22  86 CALM      30.25F
WATERTOWN      CLOUDY    24  22  94 CALM      30.26S
MONROE         MIX PCPN  30  25  80 SE3       30.23F
JANESVILLE     LGT SNOW  28  27  93 CALM      30.26F
$$

WIZ051-052-058>065-066-070>072-161100-
SOUTHEAST WISCONSIN

CITY           SKY/WX    TMP DP  RH WIND       PRES   REMARKS
MILWAUKEE      CLOUDY    26  20  77 CALM      30.27S
WAUKESHA       CLOUDY    23  21  93 CALM      30.27S
MILWAUKEE/TIMM PTCLDY    23  19  86 CALM      30.28S
RACINE         CLOUDY    24  19  81 CALM      30.29S HAZE
KENOSHA        CLOUDY    27  21  78 CALM      30.27F HAZE
FOND DU LAC    CLOUDY    17  11  77 CALM      30.26S
SHEBOYGAN      CLOUDY    16  11  80 CALM      30.26F
WEST BEND      CLOUDY    18  18 100 CALM      30.25S
JUNEAU         CLOUDY    20  17  87 CALM      30.26S
$$

LSZ147-162-161100-
LAKE SUPERIOR

STATION/POSITION TIME  TEMP    WIND        PRES    WAVE
                       AIR SEA DIR/SP/G            HT/PER
                 (UTC) (F)     (DEG/KT/KT) (MB)    (FT/S)
DEVILS ISLAND    1000   27     230/ 16/ 20 1021.8R
PORT WING        0930   22     200/  3/  7 1021.3F
SAXON HARBOR     0940   22     170/  3/  6 1021.7S
$$

LMZ867-665-643>646-161100-
LAKE MICHIGAN

STATION/POSITION TIME  TEMP    WIND        PRES    WAVE
                       AIR SEA DIR/SP/G            HT/PER
                 (UTC) (F)     (DEG/KT/KT) (MB)    (FT/S)
NORTHPORT PIER   1004   25     240/  2/ 10 1023.4
SISTER BAY       0935   22     260/  7/ 10   N/A
ALGOMA LAKESHORE 0923          290/  6       N/A
KEWAUNEE LAKESHO 0954   20     310/  2/  3 1023.9F
SHEBOYGAN LAKESH 1000   26     210/  3/  4 1025.8F
PORT WASHINGTON  0930   23     270/  2/  3 1026.1F
MILWAUKEE LAKESH 1000   29     200/  4/  5   N/A
KENOSHA   LAKESH 1000   30        CALM     1025.4
$$

TC  - TEMPERATURE IN CELSIUS
VSB - VISIBILITY IN STATUTE MILES
WCI - WIND CHILL INDEX
HX  - HEAT INDEX





USA.gov is the U.S. government's official web portal to all federal, state and local government web resources and services.